Flag for Bahrain Weather past 2 weeks in Riffa, Bahrain

Now
75 °F

Sunny.


Feels Like: 78 °F
Forecast: 75 / 83 °F
Wind: 32 mph from Northwest

Location: Bahrain International Airport

Current Time: Apr 25, 2015 at 10:00:15 AM

Latest Report: Apr 25, 2015 at 9:00 AM


Visibility: 5 mi

Pressure: 29.98 "Hg

Humidity: 54%

Dew point: 57 °F

Location of RiffaLocation

Historic Weather in Riffa — Graph

°F

Riffa temperature yesterday

Maximum temperature yesterday: 106 °F (at 3:00 PM)
Minimum temperature yesterday: 79 °F (at 7:00 PM)
Average temperature yesterday: 89 °F

Past Weeks' High & Low Weather Summary

 TemperatureHumidityPressure
High106 °F (Apr 12, 3:00 PM)83% (Apr 16, 5:00 AM)30.04 "Hg (Apr 16, 5:00 AM)
Low70 °F (Apr 16, 3:00 AM)10% (Apr 12, 3:00 PM)29.71 "Hg (Apr 12, 4:00 PM)
Average82 °F45%29.87 "Hg
* Reported Apr 10 8:00 AM — Apr 25 8:00 AM, Riffa, Weather by CustomWeather, © 2015

Note: Actual official high and low records may vary slightly from our data, if they occured in-between our weather recording intervals... More about our weather records

Advertising

Riffa weather history for previous 24 hours

 ConditionsComfort  
Time TempWeatherWind HumidityBarometerVisibility
8:00 AM
Sat, Apr 25
75 °FSunny.31 mph50%29.98 "Hg6 mi
7:00 AM75 °FSunny.30 mph47%29.95 "Hg10 mi
6:00 AM75 °FSunny.31 mph44%29.92 "Hg10 mi
5:00 AM75 °FClear.30 mph44%29.92 "Hg4 mi
4:00 AM75 °FClear.32 mph47%29.89 "Hg4 mi
3:00 AM75 °FClear.31 mph50%29.89 "Hg4 mi
2:00 AM77 °FClear.29 mph51%29.89 "Hg3 mi
1:00 AM77 °FClear.25 mph51%29.89 "Hg2 mi
12:00 AM77 °FClear.29 mph54%29.89 "Hg2 mi
11:00 PM
Fri, Apr 24
79 °FClear.26 mph54%29.89 "Hg2 mi
10:00 PM79 °FClear.23 mph58%29.89 "Hg3 mi
9:00 PM79 °FClear.20 mph61%29.89 "Hg4 mi
8:00 PM79 °FClear.21 mph65%29.86 "Hg4 mi
7:00 PM79 °FClear.22 mph70%29.83 "Hg3 mi
6:00 PM81 °FDuststorm.23 mph74%29.80 "Hg2 mi
5:00 PM82 °FSunny.23 mph66%29.77 "Hg3 mi
4:00 PM88 °FSunny.22 mph49%29.77 "Hg3 mi
3:30 PM104 °FSunny.14 mph12%29.74 "Hg4 mi
3:00 PM106 °FSunny.7 mph11%29.74 "Hg4 mi
2:00 PM104 °FSunny.8 mph11%29.77 "Hg4 mi
1:00 PM100 °FSunny.8 mph14%29.77 "Hg4 mi
12:00 PM99 °FSunny.8 mph18%29.80 "Hg4 mi
11:00 AM99 °FSunny.8 mph16%29.83 "Hg4 mi
10:00 AM97 °FExtremely hot.7 mph20%29.83 "Hg4 mi
Weather by CustomWeather, © 2015

See weather overviewHow to use our weather pages